TimeCDT,TemperatureF,Dew PointF,Humidity,Sea Level PressureIn,VisibilityMPH,Wind Direction,Wind SpeedMPH,Gust SpeedMPH,PrecipitationIn,Events,Conditions,WindDirDegrees,DateUTC
12:54 AM,57.0,39.9,53,29.97,10.0,NNW,6.9,-,N/A,,Clear,340,2011-10-17 05:54:00
1:54 AM,55.9,37.9,51,29.98,10.0,North,3.5,-,N/A,,Partly Cloudy,360,2011-10-17 06:54:00
2:54 AM,55.9,39.9,55,29.99,10.0,NW,4.6,-,N/A,,Overcast,320,2011-10-17 07:54:00
3:54 AM,55.0,39.9,57,29.99,10.0,Calm,Calm,-,N/A,,Mostly Cloudy,0,2011-10-17 08:54:00
4:54 AM,53.1,42.1,66,29.99,10.0,Calm,Calm,-,N/A,,Mostly Cloudy,0,2011-10-17 09:54:00
5:54 AM,53.1,44.1,71,30.00,10.0,Calm,Calm,-,N/A,,Overcast,0,2011-10-17 10:54:00
6:54 AM,48.9,41.0,74,30.00,10.0,Calm,Calm,-,N/A,,Partly Cloudy,0,2011-10-17 11:54:00
7:54 AM,48.9,43.0,80,30.01,10.0,Calm,Calm,-,N/A,,Clear,0,2011-10-17 12:54:00
8:54 AM,55.9,42.1,60,30.01,10.0,Calm,Calm,-,N/A,,Clear,0,2011-10-17 13:54:00
9:54 AM,60.8,35.6,39,30.01,10.0,NNE,4.6,-,N/A,,Clear,30,2011-10-17 14:54:00
10:54 AM,63.0,32.0,31,30.00,10.0,Calm,Calm,-,N/A,,Clear,0,2011-10-17 15:54:00
11:54 AM,66.0,32.0,28,29.97,10.0,Calm,Calm,-,N/A,,Clear,0,2011-10-17 16:54:00
12:54 PM,66.9,30.9,26,29.94,10.0,North,3.5,-,N/A,,Clear,350,2011-10-17 17:54:00
1:54 PM,66.0,30.0,26,29.91,10.0,Calm,Calm,-,N/A,,Scattered Clouds,0,2011-10-17 18:54:00
2:54 PM,69.1,33.1,26,29.89,10.0,Calm,Calm,-,N/A,,Clear,0,2011-10-17 19:54:00
3:54 PM,66.9,32.0,27,29.89,10.0,NNW,3.5,-,N/A,,Scattered Clouds,330,2011-10-17 20:54:00
4:54 PM,64.9,35.1,33,29.89,10.0,North,8.1,-,N/A,,Mostly Cloudy,10,2011-10-17 21:54:00
5:54 PM,61.0,35.1,38,29.91,10.0,North,5.8,-,N/A,,Mostly Cloudy,350,2011-10-17 22:54:00
6:54 PM,57.0,36.0,45,29.90,10.0,NNE,5.8,-,N/A,,Partly Cloudy,20,2011-10-17 23:54:00
7:54 PM,55.4,37.4,51,29.88,10.0,NNE,5.8,-,N/A,,Clear,20,2011-10-18 00:54:00
8:54 PM,54.0,37.9,55,29.88,10.0,NE,3.5,-,N/A,,Mostly Cloudy,40,2011-10-18 01:54:00
9:54 PM,57.2,35.6,44,29.88,10.0,North,9.2,-,N/A,,Mostly Cloudy,360,2011-10-18 02:54:00
10:54 PM,54.0,37.0,53,29.87,10.0,North,6.9,-,N/A,,Clear,360,2011-10-18 03:54:00
11:54 PM,53.1,37.0,55,29.87,10.0,North,6.9,-,N/A,,Clear,10,2011-10-18 04:54:00